Regional Weather Roundup
Issued by NWS

Home | Current Version | Previous Version | Graphics & Text | Print | Product List | Glossary On
Versions: 1 2 3 4 5 6 7 8 9 10 11 12 13 14 15 16 17 18 19 20 21 22 23 24 25 26 27 28 29 30 31 32 33 34 35 36 37 38 39 40 41 42 43 44 45 46 47 48 49 50
000
ASUS43 KMPX 280301
RWRMN
WEATHER ROUNDUP FOR MINNESOTA
NATIONAL WEATHER SERVICE TWIN CITIES/CHANHASSEN MN
1000 PM CDT FRI MAR 27 2015


NOTE: "FAIR" INDICATES FEW OR NO CLOUDS BELOW 12,000 FEET WITH NO
SIGNIFICANT WEATHER AND/OR OBSTRUCTIONS TO VISIBILITY. N/A MEANS
CURRENT SKY AND/OR WEATHER CONDITIONS ARE NOT AVAILABLE.

MNZ060>063-068>070-280400-
   Twin Cities Metro

CITY           SKY/WX    TMP DP  RH WIND       PRES   REMARKS
TWIN CITIES    MOCLDY    29   5  36 CALM      30.18R
ST PAUL        MOCLDY    28   6  39 CALM      30.20R
CRYSTAL        MOCLDY    30   7  37 CALM      30.17R
BLAINE         MOCLDY    30   9  40 CALM      30.17R
LAKEVILLE      PTCLDY    21  10  63 CALM      30.18R
EDEN PRAIRIE   MOCLDY    28   8  43 CALM      30.16R
SOUTH ST PAUL  MOCLDY    29   7  39 CALM      30.18R
LAKE ELMO      MOCLDY    28  10  47 CALM      30.19R
$$
MNZ001>005-007-008-013>017-022>024-027-028-280400-
   Northwest Minnesota

CITY           SKY/WX    TMP DP  RH WIND       PRES   REMARKS
BEMIDJI        PTCLDY    28   7  41 CALM      30.10S
HALLOCK        CLEAR     28  25  86 SE8       30.12R WCI  20
ROSEAU         CLOUDY    28  19  69 CALM      30.12S
WARROAD        CLEAR     23  18  80 CALM      30.13R
THIEF RVR FALL PTCLDY    28  21  74 CALM      30.11S
CROOKSTON      CLOUDY    28  19  69 S6        30.12R WCI  22
FOSSTON        CLEAR     25  14  63 CALM      30.11R
DETROIT LAKES  MOCLDY    30  16  55 S3        30.11S
MOORHEAD       MOCLDY    30  25  80 S5        30.12S WCI  25
PARK RAPIDS    CLOUDY    28  12  51 SW5       30.09S WCI  23
MAHNOMEN       CLOUDY    27  17  65 S3        30.10R
$$
MNZ006-009>011-018-025>026-280400-
   North Central Minnesota

CITY           SKY/WX    TMP DP  RH WIND       PRES   REMARKS
BAUDETTE       CLEAR     27  14  58 W3        30.11R
FLAG ISLAND    CLEAR     21   9  58 CALM      30.12R
INTL FALLS     MOCLDY    22  11  62 CALM      30.13R
WASKISH        MOCLDY    21  14  73 CALM      30.12R
BIG FORK       CLEAR     23   9  54 CALM      30.12R
LONGVILLE      PTCLDY    27   9  46 CALM      30.12R
GRAND RAPIDS   CLEAR     25   5  42 CALM      30.12R
CRANE LAKE     CLEAR     18  10  73 CALM      30.15R
ORR            CLEAR     25  -6  26 CALM      30.10R
COOK           CLEAR     19   9  63 CALM      30.12S
WALKER         FAIR      28   8  43 CALM      30.10S
$$
MNZ012-019>021-037-280400-
   Northeast Minnesota

CITY           SKY/WX    TMP DP  RH WIND       PRES   REMARKS
DULUTH         PTCLDY    21  12  68 E7        30.14R WCI  12
ELY            CLEAR     21   5  49 S3        30.13R
HIBBING        CLEAR     21   6  52 SE6       30.13R WCI  13
EVELETH        CLEAR     23   9  54 CALM      30.14R
DULUTH HARBOR  PTCLDY    28  16  59 CALM      30.19S
TWO HARBORS    CLEAR     21  12  68 N3        30.15S
SILVER BAY     CLEAR     16  10  79 CALM      30.16R
GRAND MARAIS     N/A     15  10  80 NW3       30.22S
G MARAIS ARPRT PTCLDY     7   1  78 CALM      30.13S
$$
MNZ029>031-032-039>041-046>048-054>057-064-280400-
   West Central Minnesota

CITY           SKY/WX    TMP DP  RH WIND       PRES   REMARKS
FERGUS FALLS   CLOUDY    28  14  54 SE7       30.13F WCI  21
WHEATON        CLOUDY    28  25  86 SW3       30.13R
MORRIS         CLOUDY    30  21  69 SE6       30.11R WCI  24
ALEXANDRIA     CLOUDY    29  16  58 SE6       30.12R WCI  23
ELBOW LAKE     CLOUDY    30  18  60 E7        30.11S WCI  23
WADENA         CLOUDY    27  14  59 S3        30.11S
GLENWOOD       CLOUDY    27  19  74 SE3       30.12S
APPLETON       CLOUDY    34  21  60 SE7       30.12R WCI  28
BENSON         CLOUDY    30  19  64 S9        30.13R WCI  22
ORTONVILLE     CLOUDY    30  23  74 S5        30.10S WCI  25
MADISON        CLOUDY    34  19  55 S9        30.11S WCI  26
WILLMAR        FAIR      30  18  59 SE10      30.15R WCI  21
$$
MNZ033>034-036-042>043-049>051-058-059-280400-
   Central Minnesota

CITY           SKY/WX    TMP DP  RH WIND       PRES   REMARKS
ST CLOUD       MOCLDY    27  10  49 S3        30.15S
SAUK CENTRE    FAIR      27  16  62 SE5       30.13S WCI  22
PAYNESVILLE    CLOUDY    26  13  58 E3        30.15R
AITKIN         PTCLDY    27  12  54 CALM      30.11S
PINE RIVER     CLOUDY    27  14  59 CALM      30.15R
BRAINERD       CLOUDY    27   8  44 S3        30.13R
STAPLES        CLOUDY    27  12  54 CALM      30.12S
LONG PRAIRIE   CLOUDY    28  16  59 SE6       30.13S WCI  22
LITTLE FALLS   MOCLDY    28  12  50 CALM      30.14S
LITCHFIELD     CLOUDY    28  18  64 CALM      30.15S
MAPLE LAKE     MOCLDY    27  15  62 CALM      30.17R
$$
MNZ037-044-045-052-053-280400-
   East Central Minnesota

CITY           SKY/WX    TMP DP  RH WIND       PRES   REMARKS
PRINCETON      MOCLDY    27  12  54 CALM      30.15F
MORA           MOCLDY    27  12  54 CALM      30.17S
CAMBRIDGE      MOCLDY    30  16  55 CALM      30.15R
RUSH CITY      MOCLDY    27   9  46 CALM      30.16R
MOOSE LAKE     CLOUDY    28   5  37 CALM      30.14R
HINCKLEY       MOCLDY    28  18  64 CALM      30.15S
CLOQUET        MOCLDY    25   7  46 CALM      30.14S
MCGREGOR       MOCLDY    28  12  50 CALM      30.14R
$$
MNZ071>073-080-081-089-090-097-098-280400-
   Southwest Minnesota

CITY           SKY/WX    TMP DP  RH WIND       PRES   REMARKS
MONTEVIDEO     CLOUDY    30  23  74 S6        30.14R WCI  24
GRANITE FALLS  CLOUDY    30  21  68 CALM      30.15R
CANBY          LGT SNOW  31  24  74 SE5       30.12R WCI  26
MARSHALL       CLOUDY    30  18  59 SE13      30.12R WCI  20
REDWOOD FALLS  CLOUDY    32  21  64 E6        30.13R WCI  26
OLIVIA         CLOUDY    28  18  64 E7        30.13S WCI  21
PIPESTONE      FLURRIES  28  25  86 SE6       30.07R WCI  22
WINDOM         CLOUDY    32  19  59 SW5       30.11S WCI  27
WORTHINGTON    CLOUDY    28  21  74 SE7       30.11R WCI  21
JACKSON        CLOUDY    32  19  59 S6        30.12S WCI  26
TRACY          LGT SNOW  30  26  85 SE6       30.12R WCI  24
SLAYTON        FLURRIES  31  17  57 CALM      30.11R
$$
MNZ065>067-074>077-082>085-091>093-280400-
   South Central Minnesota

CITY           SKY/WX    TMP DP  RH WIND       PRES   REMARKS
MANKATO        MOCLDY    27  16  63 SE9       30.15S WCI  17
NEW ULM        CLOUDY    28  16  59 SE9       30.14R WCI  20
ST JAMES       CLOUDY    30  21  69 E9        30.14S WCI  22
FAIRMONT       CLOUDY    32  18  55 SE7       30.12S WCI  26
GLENCOE        MOCLDY    27  16  63 E5        30.16R WCI  22
FARIBAULT      MOCLDY    25  12  58 SE5       30.17S WCI  19
OWATONNA       PTCLDY    25   9  50 SE6       30.16S WCI  18
WASECA         MOCLDY    25  16  68 E7        30.17S WCI  17
ALBERT LEA     PTCLDY    25  16  68 E5        30.16R WCI  19
$$
MNZ078>079-086>088-094>096-280400-
   Southeast Minnesota

CITY           SKY/WX    TMP DP  RH WIND       PRES   REMARKS
ROCHESTER      PTCLDY    24   7  48 CALM      30.17R
RED WING       CLOUDY    27   7  43 CALM      30.18S
STANTON        PTCLDY    24  10  55 SW3       30.17R
DODGE CENTER   PTCLDY    21  10  63 SE5       30.16S WCI  15
WINONA         MOCLDY    30  10  43 CALM      30.20S
AUSTIN         PTCLDY    21  12  68 CALM      30.17R
PRESTON        PTCLDY    23  10  59 SW3       30.17S
$$
ABBREVIATIONS USED IN REMARKS
   TC - TEMPERATURES IN CELSIUS
  WCI - WIND CHILL INDEX
   HX - HEAT INDEX
  VSB - VISIBILITY
$$



USA.gov is the U.S. government's official web portal to all federal, state and local government web resources and services.